Wind_Speed
25 25 26 27 27 28 28 29 29 30 30 30 31 31 30 30 29 29 29 29 29 29 28 27 27 26 26 25 25 24 24 25 25 25 25 25 24 24 23 23 23 23 23
25 26 27 27 28 28 29 29 29 30 30 30 31 32 32 31 31 31 31 31 31 30 29 29 28 28 27 26 26 26 26 26 26 26 26 26 26 26 25 24 24 24 25
25 26 27 27 28 28 28 29 30 30 29 30 30 31 32 32 33 32 31 31 31 31 30 30 29 28 28 28 27 26 27 28 27 27 27 27 27 26 26 26 25 26 25
25 26 27 28 28 28 28 29 29 30 30 29 30 30 31 31 32 33 32 32 31 31 31 30 30 29 29 29 28 28 28 28 28 28 28 28 27 28 27 27 26 26 26
25 27 27 27 28 28 28 29 29 30 30 30 30 31 31 32 32 32 31 32 32 31 31 30 30 30 29 28 28 28 27 27 27 28 28 27 27 28 28 28 27 27 28
26 27 27 27 28 29 29 29 30 31 31 30 31 32 32 32 33 33 32 32 32 32 32 31 31 30 29 29 29 29 28 29 28 29 29 28 28 28 29 28 29 29 29
26 27 27 27 28 29 28 29 30 30 30 30 30 31 31 31 31 31 31 32 32 32 33 32 31 31 30 29 29 29 29 29 29 29 29 29 28 28 29 29 29 30 30
26 27 28 29 29 28 29 28 29 29 29 30 30 30 30 29 30 30 31 31 31 33 33 32 32 31 30 30 30 31 30 30 30 30 30 30 30 29 30 30 30 30 30
26 27 28 29 29 29 28 28 28 28 29 30 30 29 28 28 28 29 30 31 31 32 32 33 32 31 31 31 32 32 31 31 30 31 30 30 31 31 31 31 30 30 31
26 27 28 29 30 29 27 27 27 28 29 28 28 27 27 26 26 26 28 29 30 31 31 31 31 31 32 32 32 31 31 31 31 30 29 30 30 31 30 30 30 31 31
25 26 28 28 27 26 26 26 27 28 28 27 26 26 25 25 25 25 25 26 28 30 31 30 30 31 31 32 31 31 30 31 31 31 30 30 30 30 30 30 30 30 30
25 26 27 27 27 26 25 25 26 26 26 26 25 24 24 24 24 24 25 26 26 28 29 29 29 30 31 31 31 31 31 30 30 31 30 30 29 29 29 30 30 30 30
24 25 26 26 26 25 24 25 25 25 25 25 25 25 24 23 23 24 24 25 26 26 27 28 29 30 31 31 31 31 31 31 31 30 30 29 29 29 29 29 29 29 30
24 25 25 25 26 25 25 24 24 24 24 24 24 24 23 23 23 23 23 24 25 24 24 26 27 29 30 30 30 31 31 32 31 31 31 30 29 29 30 29 29 29 29
25 25 25 25 25 25 25 25 24 24 24 23 23 22 23 23 23 22 22 23 23 23 22 24 26 27 28 29 30 31 31 32 32 32 31 30 29 30 30 29 29 29 30
24 24 24 24 25 25 26 25 25 24 24 23 22 22 22 23 23 23 22 22 22 23 22 23 24 25 27 28 30 31 31 31 32 32 31 31 30 30 31 31 30 30 30
23 24 24 25 25 26 25 25 25 24 23 23 22 22 22 23 22 22 22 21 21 21 20 21 22 24 25 27 29 30 30 30 30 31 31 31 31 31 31 31 31 31 30
23 23 24 25 25 25 25 25 24 23 23 23 22 22 22 22 22 21 21 20 20 19 19 19 19 21 23 24 25 27 28 28 29 29 30 30 31 31 31 31 31 31 31
22 23 24 25 25 25 25 24 23 23 23 23 22 21 20 19 19 19 19 18 18 18 17 17 18 19 21 22 23 25 26 27 28 28 29 30 30 30 31 31 32 32 31
22 22 24 24 24 24 24 23 22 22 22 22 21 20 19 19 18 18 17 17 17 17 17 17 18 19 20 21 21 22 23 25 26 27 29 30 30 30 30 31 31 31 32
21 22 22 23 23 23 23 23 22 21 21 21 20 20 19 18 18 17 16 16 16 16 16 16 17 18 19 20 21 21 22 23 25 26 27 28 30 30 31 31 31 31 31
21 21 21 22 22 22 22 21 21 20 20 20 20 19 18 18 17 16 15 15 15 15 15 16 16 16 18 19 20 21 22 22 23 24 25 26 27 28 29 30 30 30 30
21 21 22 22 22 21 21 20 20 19 19 19 19 19 18 17 16 16 15 15 15 14 14 15 15 16 16 17 18 18 19 20 21 23 24 25 26 27 28 28 29 30 30
19 21 22 21 21 20 20 20 19 19 19 18 18 17 16 15 15 15 15 15 15 14 14 14 15 15 16 16 17 17 18 19 20 21 22 24 25 26 27 28 29 29 30
20 20 21 21 20 20 20 19 20 18 17 17 17 16 15 15 15 15 14 14 14 14 14 15 14 14 15 16 16 17 18 19 19 20 21 22 24 26 27 27 29 30 30
20 20 20 20 20 20 19 19 18 18 17 17 16 16 15 15 15 15 15 14 14 14 14 14 14 15 15 16 17 18 19 19 20 21 22 23 24 25 25 26 28 29 31
Wind_Direction
294 294 293 294 293 292 292 292 290 289 284 281 279 277 274 273 273 272 270 270 269 268 267 265 262 262 261 260 259 258 257 255 254 251 249 246 245 244 243 243 241 239 238
293 294 293 293 292 292 292 291 291 290 287 283 281 277 274 272 271 271 270 270 269 267 265 263 261 260 259 259 257 258 257 256 254 251 248 246 245 244 243 244 243 240 239
294 294 295 294 293 293 292 292 291 292 289 284 282 279 275 273 271 270 268 268 268 266 264 263 261 259 258 257 256 256 257 255 253 250 248 247 246 245 244 244 244 241 239
297 297 297 295 293 294 293 293 292 292 290 288 284 281 277 274 272 269 267 266 266 265 263 262 260 258 256 256 256 255 254 253 252 250 249 247 246 246 246 244 244 242 240
299 299 299 296 294 293 294 293 292 293 292 289 286 283 278 274 270 267 265 264 264 263 262 260 258 256 255 254 254 254 253 252 250 248 247 246 246 246 245 245 244 242 241
298 300 300 298 297 295 295 294 294 293 291 290 287 284 280 276 271 268 265 264 262 261 260 259 256 255 253 252 252 252 252 251 249 247 247 247 245 244 245 245 245 244 244
300 300 301 299 299 296 296 296 296 295 293 291 289 285 281 278 274 269 266 264 262 259 258 258 257 255 254 253 252 253 251 249 248 247 247 246 246 247 246 245 246 245 245
301 301 301 301 301 298 298 299 298 297 295 293 290 287 283 281 276 272 267 264 262 260 258 257 256 254 253 253 252 252 251 249 248 247 246 246 247 248 247 247 247 246 245
301 301 302 301 302 300 299 299 298 297 296 294 291 288 284 281 278 274 270 265 263 260 258 256 255 253 251 252 252 252 251 248 247 246 247 248 248 248 248 248 248 247 246
303 305 305 305 304 299 299 299 298 297 298 296 293 290 287 284 280 275 272 268 265 262 259 257 256 253 251 250 251 251 250 247 246 246 247 247 247 247 247 247 247 247 246
306 308 308 309 308 304 302 301 300 299 300 297 295 293 290 285 281 279 272 268 266 264 261 257 255 252 251 249 249 249 249 248 246 246 245 246 247 248 249 248 247 247 246
308 309 310 310 310 307 306 305 304 303 301 298 295 293 292 289 284 281 274 268 266 263 260 258 255 253 250 248 248 248 247 247 247 246 245 245 246 247 248 248 248 246 245
309 310 310 309 310 310 310 307 306 305 303 300 295 292 291 289 287 283 277 270 266 262 260 260 257 254 251 249 248 247 245 246 247 247 246 245 245 246 247 247 247 246 246
309 311 311 310 310 311 312 311 309 307 304 302 299 295 292 290 289 286 281 273 268 262 258 259 257 255 252 249 248 246 245 245 246 247 246 244 243 245 246 248 246 244 245
310 312 313 313 313 313 313 312 310 310 307 305 302 298 295 291 289 290 284 276 271 267 263 261 258 256 252 250 248 247 246 246 246 246 245 243 244 243 244 244 243 244 245
311 313 314 315 314 314 314 312 310 309 310 308 305 302 299 297 293 290 287 280 273 269 266 263 259 256 254 251 247 247 245 246 246 245 243 243 244 243 241 242 244 245 245
311 313 313 314 314 314 314 313 310 309 310 308 307 305 301 300 298 294 289 284 279 273 265 263 260 258 255 252 249 247 246 246 245 245 244 244 244 244 243 244 244 244 246
311 313 315 315 314 314 315 314 313 312 312 310 308 306 303 301 299 295 291 287 282 277 270 265 261 258 253 251 250 248 245 244 243 243 243 244 245 245 243 245 245 245 247
313 314 316 316 315 315 315 315 315 314 314 312 310 308 306 304 301 298 294 288 284 280 278 272 265 260 255 254 252 250 246 244 244 244 244 243 244 245 245 245 246 246 247
314 315 316 316 316 317 317 316 315 314 313 312 312 310 309 308 306 301 297 291 286 278 279 276 271 262 258 257 254 252 248 247 247 247 246 243 244 245 245 246 247 246 246
314 316 317 317 317 318 317 316 315 314 314 314 313 311 308 307 308 304 301 297 289 281 281 276 271 263 260 259 258 254 251 249 249 248 247 246 245 245 245 245 246 246 246
318 319 319 320 319 319 319 318 317 315 316 316 314 313 309 306 305 303 302 300 294 288 286 283 276 269 263 262 259 254 252 251 250 249 247 246 245 245 246 247 247 248 248
321 322 321 321 321 320 320 320 320 318 317 315 314 311 309 308 306 302 301 303 300 292 288 285 278 273 268 262 259 255 253 252 250 248 246 247 247 246 247 247 248 248 249
323 322 323 323 325 324 322 321 319 319 319 319 316 312 310 308 307 306 304 301 297 293 291 286 281 275 271 264 258 255 254 253 252 253 252 250 249 250 250 248 249 250 251
322 322 325 324 325 325 323 320 318 319 320 320 319 317 313 312 308 306 304 304 298 293 291 287 282 278 274 268 260 256 255 257 257 256 256 253 252 251 252 252 251 252 254
321 324 324 325 325 325 325 323 323 322 322 322 321 319 317 315 311 309 306 305 302 296 295 292 287 285 279 273 268 263 260 260 260 259 259 257 255 253 254 255 255 255 256
Height
5841 5839 5837 5835 5833 5831 5829 5827 5825 5823 5822 5820 5819 5818 5817 5817 5817 5817 5817 5817 5817 5818 5818 5819 5820 5820 5821 5822 5823 5824 5825 5826 5827 5829 5830 5832 5834 5836 5838 5840 5841 5843 5845
5836 5834 5832 5830 5827 5825 5822 5820 5818 5816 5814 5812 5811 5810 5810 5809 5809 5809 5810 5810 5810 5810 5811 5812 5813 5814 5814 5816 5816 5818 5819 5820 5821 5822 5824 5826 5828 5830 5832 5834 5836 5838 5840
5831 5829 5826 5824 5821 5818 5816 5813 5811 5809 5807 5805 5803 5802 5802 5801 5801 5801 5802 5802 5803 5803 5804 5805 5805 5807 5808 5809 5810 5811 5812 5813 5814 5816 5818 5820 5821 5823 5826 5827 5830 5832 5834
5825 5823 5820 5817 5814 5812 5809 5807 5804 5802 5799 5797 5795 5794 5793 5792 5792 5793 5793 5794 5795 5795 5796 5797 5798 5799 5800 5802 5803 5804 5805 5806 5808 5810 5811 5813 5815 5817 5819 5821 5824 5826 5828
5820 5817 5814 5811 5808 5805 5803 5800 5798 5795 5792 5789 5787 5786 5784 5783 5783 5784 5784 5785 5786 5787 5788 5789 5791 5792 5793 5795 5796 5797 5799 5800 5801 5803 5805 5806 5809 5811 5813 5815 5817 5819 5822
5814 5811 5808 5805 5802 5799 5796 5793 5790 5787 5784 5781 5779 5777 5775 5774 5774 5775 5775 5776 5777 5779 5780 5781 5783 5784 5786 5787 5789 5790 5791 5793 5794 5796 5798 5800 5802 5804 5806 5808 5811 5813 5815
5807 5804 5801 5798 5795 5792 5789 5786 5782 5779 5776 5773 5771 5769 5767 5766 5765 5766 5766 5767 5768 5770 5771 5773 5774 5776 5778 5780 5781 5783 5784 5785 5787 5789 5791 5793 5795 5797 5799 5802 5804 5806 5809
5801 5798 5795 5792 5788 5785 5782 5778 5775 5772 5769 5766 5763 5761 5759 5758 5757 5757 5757 5758 5759 5761 5762 5764 5766 5768 5770 5771 5773 5775 5777 5778 5780 5782 5784 5786 5788 5790 5793 5795 5797 5799 5802
5796 5792 5789 5785 5781 5777 5774 5771 5768 5765 5762 5758 5755 5753 5752 5750 5749 5749 5748 5749 5750 5751 5753 5755 5757 5759 5761 5763 5765 5767 5768 5770 5772 5774 5776 5779 5781 5783 5785 5788 5790 5792 5794
5790 5786 5782 5778 5774 5770 5767 5764 5761 5758 5755 5751 5748 5746 5744 5743 5742 5741 5741 5741 5741 5742 5744 5746 5748 5750 5752 5754 5756 5758 5760 5762 5764 5766 5769 5771 5774 5776 5778 5780 5782 5784 5786
5784 5780 5776 5773 5768 5764 5761 5757 5754 5751 5748 5744 5742 5739 5737 5735 5734 5733 5734 5733 5733 5733 5735 5736 5739 5741 5743 5745 5748 5750 5752 5754 5756 5759 5761 5764 5767 5769 5771 5772 5774 5777 5779
5778 5775 5771 5767 5763 5759 5755 5751 5748 5744 5741 5738 5735 5733 5731 5728 5726 5725 5725 5725 5725 5725 5726 5727 5730 5732 5734 5736 5739 5742 5744 5746 5749 5751 5754 5756 5759 5761 5763 5765 5767 5769 5771
5773 5769 5765 5762 5758 5753 5750 5746 5742 5739 5735 5732 5729 5727 5724 5722 5720 5718 5717 5717 5717 5717 5718 5719 5721 5723 5725 5728 5731 5734 5736 5739 5741 5744 5746 5749 5751 5753 5755 5757 5759 5761 5763
5768 5764 5760 5756 5752 5748 5744 5740 5737 5733 5729 5726 5723 5720 5718 5715 5713 5711 5710 5709 5709 5710 5711 5712 5713 5714 5717 5719 5722 5725 5728 5731 5733 5736 5738 5741 5743 5746 5748 5750 5752 5754 5756
5762 5758 5755 5751 5747 5743 5739 5735 5731 5728 5724 5720 5717 5714 5712 5709 5707 5705 5703 5702 5703 5703 5704 5704 5705 5706 5708 5711 5714 5717 5720 5722 5725 5728 5730 5733 5735 5738 5741 5743 5745 5747 5749
5757 5753 5749 5746 5742 5738 5734 5730 5726 5722 5719 5715 5712 5709 5706 5703 5701 5698 5697 5696 5695 5695 5696 5697 5697 5699 5701 5703 5706 5709 5711 5714 5716 5719 5722 5725 5728 5730 5733 5735 5738 5740 5742
5751 5748 5744 5740 5736 5732 5728 5724 5720 5717 5713 5710 5707 5704 5701 5698 5695 5693 5691 5690 5689 5688 5689 5690 5690 5691 5693 5695 5698 5700 5703 5705 5708 5711 5715 5717 5720 5723 5725 5728 5730 5732 5734
5746 5742 5739 5735 5731 5727 5723 5719 5715 5712 5708 5705 5702 5698 5695 5692 5690 5688 5686 5684 5683 5683 5683 5683 5684 5685 5686 5688 5690 5692 5695 5698 5700 5703 5706 5709 5712 5715 5717 5720 5722 5725 5727
5741 5737 5733 5730 5726 5722 5718 5714 5711 5707 5703 5700 5697 5693 5690 5687 5685 5683 5681 5679 5679 5678 5678 5678 5678 5679 5680 5681 5683 5685 5687 5690 5692 5695 5698 5701 5704 5706 5709 5711 5714 5717 5719
5736 5732 5729 5725 5721 5717 5713 5709 5706 5702 5699 5695 5692 5689 5686 5683 5681 5679 5677 5675 5674 5674 5673 5673 5673 5674 5674 5675 5677 5679 5680 5683 5685 5688 5691 5693 5696 5698 5701 5703 5706 5708 5710
5731 5728 5724 5720 5717 5713 5709 5705 5701 5698 5694 5691 5688 5685 5682 5680 5677 5675 5673 5672 5670 5669 5669 5668 5668 5668 5669 5670 5671 5673 5674 5676 5678 5680 5683 5685 5688 5690 5692 5695 5697 5700 5702
5727 5723 5720 5716 5712 5708 5704 5700 5697 5694 5691 5687 5684 5681 5679 5676 5674 5672 5669 5668 5666 5665 5665 5664 5664 5664 5664 5665 5666 5667 5669 5671 5672 5674 5676 5678 5680 5683 5685 5687 5689 5692 5694
5723 5719 5716 5712 5708 5704 5700 5697 5693 5690 5687 5683 5680 5678 5675 5673 5670 5668 5666 5664 5663 5661 5661 5660 5660 5659 5659 5660 5660 5661 5663 5664 5666 5667 5669 5671 5673 5675 5677 5679 5681 5684 5685
5719 5716 5712 5708 5704 5700 5697 5693 5690 5686 5683 5680 5677 5674 5671 5669 5667 5665 5663 5661 5659 5658 5657 5656 5655 5655 5655 5655 5655 5656 5657 5658 5660 5661 5662 5664 5666 5668 5670 5672 5673 5675 5677
5715 5712 5708 5704 5700 5696 5693 5689 5686 5683 5679 5676 5673 5671 5668 5666 5664 5662 5660 5658 5656 5655 5653 5652 5651 5651 5650 5650 5650 5651 5652 5653 5654 5655 5656 5657 5659 5661 5662 5664 5665 5667 5668
5711 5708 5704 5701 5697 5693 5689 5686 5682 5679 5676 5673 5670 5668 5665 5663 5660 5658 5656 5654 5652 5651 5649 5648 5647 5646 5645 5645 5645 5646 5647 5648 5648 5649 5650 5651 5652 5653 5655 5656 5657 5658 5659